When you browse on this site, cookies collect data to enhance your experience and personalize the content and advertising you see.
Visit our Privacy Policy to learn more. By continuing to use the site, you agree to this use of cookies and data.
  • In Romania
  • List of Countries
  • For 7 days
  • Water Temperature
  • Weather Map
  • Weather Widgets
  • user-avatar
    Login

    Hourly Weather Algiers

    Today, 7 June, Sunday

    Time Temperature Precipitation Wind Pressure Humidity
    00:00 +26°C° 0 mm 2 mps 743 mmHg 45%
    01:00 +26°C° 0 mm 2 mps 743 mmHg 45%
    02:00 +25°C° 0 mm 3 mps 743 mmHg 46%
    03:00 +25°C° 0 mm 4 mps 743 mmHg 46%
    04:00 +25°C° 0.1 mm 4 mps 743 mmHg 48%
    05:00 +25°C° 0.1 mm 4 mps 744 mmHg 51%
    06:00 +25°C° 0.1 mm 4 mps 744 mmHg 53%
    07:00 +26°C° 0 mm 4 mps 744 mmHg 51%
    08:00 +26°C° 0 mm 4 mps 744 mmHg 48%
    09:00 +27°C° 0 mm 4 mps 744 mmHg 45%
    10:00 +28°C° 0 mm 5 mps 744 mmHg 45%
    11:00 +28°C° 0 mm 7 mps 745 mmHg 45%
    12:00 +29°C° 0 mm 8 mps 745 mmHg 45%
    13:00 +28°C° 0 mm 8 mps 744 mmHg 49%
    14:00 +27°C° 0 mm 9 mps 744 mmHg 52%
    15:00 +27°C° 0 mm 9 mps 744 mmHg 55%
    16:00 +26°C° 0 mm 9 mps 744 mmHg 56%
    17:00 +26°C° 0 mm 8 mps 744 mmHg 56%
    18:00 +26°C° 0 mm 8 mps 744 mmHg 56%
    19:00 +24°C° 0 mm 7 mps 745 mmHg 57%
    20:00 +23°C° 0 mm 6 mps 746 mmHg 59%
    21:00 +23°C° 0 mm 5 mps 746 mmHg 61%
    22:00 +23°C° 0 mm 4 mps 746 mmHg 60%
    23:00 +22°C° 0 mm 4 mps 745 mmHg 60%

    Tomorrow, 8 June, Monday

    Time Temperature Precipitation Wind Pressure Humidity
    00:00 +22°C° 0 mm 3 mps 745 mmHg 59%
    01:00 +22°C° 0 mm 3 mps 745 mmHg 60%
    02:00 +22°C° 0 mm 3 mps 745 mmHg 61%
    03:00 +21°C° 0 mm 2 mps 744 mmHg 61%
    04:00 +23°C° 0 mm 2 mps 744 mmHg 60%
    05:00 +23°C° 0 mm 2 mps 745 mmHg 59%
    06:00 +24°C° 0 mm 2 mps 745 mmHg 58%
    07:00 +25°C° 0 mm 2 mps 745 mmHg 54%
    08:00 +26°C° 0 mm 3 mps 745 mmHg 51%
    09:00 +27°C° 0 mm 3 mps 745 mmHg 47%
    10:00 +27°C° 0 mm 4 mps 745 mmHg 50%
    11:00 +26°C° 0 mm 6 mps 745 mmHg 53%
    12:00 +26°C° 0 mm 7 mps 745 mmHg 55%
    13:00 +26°C° 0.1 mm 7 mps 745 mmHg 57%
    14:00 +24°C° 0.1 mm 7 mps 745 mmHg 59%
    15:00 +24°C° 0.1 mm 7 mps 745 mmHg 61%
    16:00 +23°C° 0 mm 6 mps 745 mmHg 63%
    17:00 +23°C° 0 mm 6 mps 745 mmHg 64%
    18:00 +23°C° 0 mm 6 mps 745 mmHg 66%
    19:00 +22°C° 0 mm 6 mps 746 mmHg 68%
    20:00 +21°C° 0 mm 6 mps 746 mmHg 69%
    21:00 +21°C° 0 mm 6 mps 747 mmHg 71%
    22:00 +20°C° 0 mm 6 mps 747 mmHg 72%
    23:00 +20°C° 0 mm 5 mps 747 mmHg 73%

    Day after tomorrow, 9 June, Tuesday

    Time Temperature Precipitation Wind Pressure Humidity
    00:00 +20°C° 0 mm 5 mps 747 mmHg 74%
    01:00 +19°C° 0.1 mm 5 mps 747 mmHg 75%
    02:00 +19°C° 0.1 mm 5 mps 746 mmHg 77%
    03:00 +19°C° 0.1 mm 4 mps 746 mmHg 79%
    04:00 +19°C° 0.2 mm 4 mps 747 mmHg 77%
    05:00 +20°C° 0.2 mm 3 mps 747 mmHg 76%
    06:00 +20°C° 0.2 mm 3 mps 747 mmHg 75%
    07:00 +21°C° 0 mm 3 mps 747 mmHg 71%
    08:00 +22°C° 0 mm 3 mps 748 mmHg 67%
    09:00 +24°C° 0 mm 3 mps 748 mmHg 63%
    10:00 +24°C° 0 mm 3 mps 748 mmHg 61%
    11:00 +25°C° 0 mm 3 mps 748 mmHg 60%
    12:00 +25°C° 0 mm 3 mps 748 mmHg 58%
    13:00 +25°C° 0 mm 3 mps 748 mmHg 57%
    14:00 +25°C° 0 mm 3 mps 748 mmHg 57%
    15:00 +25°C° 0 mm 3 mps 748 mmHg 56%
    16:00 +24°C° 0 mm 3 mps 748 mmHg 58%
    17:00 +24°C° 0 mm 3 mps 748 mmHg 60%
    18:00 +23°C° 0 mm 2 mps 748 mmHg 62%
    19:00 +23°C° 0 mm 2 mps 749 mmHg 65%
    20:00 +21°C° 0 mm 2 mps 749 mmHg 69%
    21:00 +20°C° 0 mm 2 mps 749 mmHg 72%
    22:00 +20°C° 0 mm 2 mps 749 mmHg 72%
    23:00 +20°C° 0 mm 2 mps 749 mmHg 73%

    10 June, Wednesday

    Time Temperature Precipitation Wind Pressure Humidity
    00:00 +20°C° 0 mm 2 mps 749 mmHg 73%
    01:00 +20°C° 0 mm 1 mps 749 mmHg 73%
    02:00 +20°C° 0 mm 1 mps 749 mmHg 72%
    03:00 +18°C° 0 mm 0 mps 749 mmHg 71%
    04:00 +19°C° 0 mm 0 mps 749 mmHg 68%
    05:00 +19°C° 0 mm 0 mps 749 mmHg 66%
    06:00 +22°C° 0 mm 1 mps 749 mmHg 63%
    07:00 +23°C° 0 mm 1 mps 749 mmHg 59%
    08:00 +24°C° 0 mm 1 mps 749 mmHg 54%
    09:00 +25°C° 0 mm 2 mps 750 mmHg 50%
    10:00 +25°C° 0 mm 2 mps 750 mmHg 47%
    11:00 +26°C° 0 mm 3 mps 750 mmHg 45%
    12:00 +27°C° 0 mm 3 mps 749 mmHg 42%
    13:00 +27°C° 0 mm 4 mps 749 mmHg 42%
    14:00 +26°C° 0 mm 4 mps 749 mmHg 43%
    15:00 +26°C° 0 mm 4 mps 749 mmHg 43%
    16:00 +26°C° 0 mm 4 mps 748 mmHg 45%
    17:00 +25°C° 0 mm 4 mps 748 mmHg 47%
    18:00 +23°C° 0 mm 4 mps 748 mmHg 49%
    19:00 +24°C° 0 mm 3 mps 749 mmHg 50%
    20:00 +22°C° 0 mm 3 mps 749 mmHg 51%
    21:00 +21°C° 0 mm 2 mps 749 mmHg 53%
    22:00 +21°C° 0 mm 2 mps 749 mmHg 50%
    23:00 +21°C° 0 mm 2 mps 749 mmHg 48%

    11 June, Thursday

    Time Temperature Precipitation Wind Pressure Humidity
    00:00 +22°C° 0 mm 1 mps 748 mmHg 46%
    01:00 +22°C° 0 mm 1 mps 748 mmHg 46%
    02:00 +22°C° 0 mm 1 mps 748 mmHg 45%
    03:00 +22°C° 0 mm 1 mps 747 mmHg 44%
    04:00 +22°C° 0 mm 1 mps 747 mmHg 43%
    05:00 +23°C° 0 mm 2 mps 747 mmHg 42%
    06:00 +23°C° 0 mm 2 mps 747 mmHg 40%
    07:00 +25°C° 0 mm 2 mps 747 mmHg 36%
    08:00 +27°C° 0 mm 2 mps 747 mmHg 33%
    09:00 +29°C° 0 mm 1 mps 747 mmHg 29%
    10:00 +29°C° 0 mm 2 mps 747 mmHg 30%
    11:00 +29°C° 0 mm 3 mps 746 mmHg 31%
    12:00 +29°C° 0 mm 4 mps 746 mmHg 32%
    13:00 +29°C° 0 mm 3 mps 745 mmHg 33%
    14:00 +28°C° 0 mm 3 mps 745 mmHg 35%
    15:00 +28°C° 0 mm 3 mps 744 mmHg 37%
    16:00 +27°C° 0 mm 2 mps 744 mmHg 39%
    17:00 +27°C° 0 mm 2 mps 744 mmHg 42%
    18:00 +26°C° 0 mm 1 mps 744 mmHg 44%
    19:00 +25°C° 0 mm 1 mps 744 mmHg 45%
    20:00 +25°C° 0 mm 2 mps 744 mmHg 46%
    21:00 +24°C° 0 mm 2 mps 744 mmHg 47%
    22:00 +24°C° 0 mm 2 mps 744 mmHg 46%
    23:00 +24°C° 0 mm 2 mps 744 mmHg 45%

    12 June, Friday

    Time Temperature Precipitation Wind Pressure Humidity
    00:00 +24°C° 0 mm 2 mps 743 mmHg 44%
    01:00 +24°C° 0 mm 2 mps 743 mmHg 41%
    02:00 +24°C° 0 mm 2 mps 743 mmHg 39%
    03:00 +24°C° 0 mm 3 mps 742 mmHg 36%
    04:00 +24°C° 0 mm 3 mps 742 mmHg 35%
    05:00 +25°C° 0 mm 4 mps 743 mmHg 34%
    06:00 +26°C° 0 mm 4 mps 743 mmHg 33%
    07:00 +27°C° 0 mm 5 mps 743 mmHg 31%
    08:00 +28°C° 0 mm 5 mps 743 mmHg 30%
    09:00 +30°C° 0 mm 5 mps 743 mmHg 28%
    10:00 +29°C° 0 mm 7 mps 743 mmHg 31%
    11:00 +29°C° 0 mm 9 mps 743 mmHg 34%
    12:00 +28°C° 0 mm 11 mps 743 mmHg 38%
    13:00 +28°C° 0 mm 11 mps 743 mmHg 41%
    14:00 +27°C° 0 mm 11 mps 743 mmHg 45%
    15:00 +26°C° 0 mm 11 mps 743 mmHg 49%
    16:00 +26°C° 0 mm 11 mps 743 mmHg 51%
    17:00 +24°C° 0 mm 10 mps 743 mmHg 54%
    18:00 +23°C° 0 mm 10 mps 744 mmHg 57%
    19:00 +23°C° 0 mm 9 mps 744 mmHg 59%
    20:00 +22°C° 0 mm 8 mps 745 mmHg 62%
    21:00 +21°C° 0 mm 7 mps 746 mmHg 64%
    22:00 +21°C° 0 mm 6 mps 746 mmHg 63%
    23:00 +21°C° 0 mm 5 mps 745 mmHg 62%
    Show more